Meteo Giornale » Osservazioni meteo Stati Uniti (USA) » Beverly

ore: 17:53 - Osservazioni Meteo Beverly
Lat. 42° 35' N Lon. 70° 54' W Alt. 33 metri s.l.m.

coperto

19 °C

Coperto

Temp. 24 Ore

17 °C

20 °C

Sud-Est

11.1 Km/h

Dew point 14 °C

Umidità 72 %

Visibilità  10 Km

Il sole sorge alle ore 06:08

Il sole tramonta alle ore 19:18

Data e Ora Cielo e Fenomeni T °C DP °C Um. % Pres. hPa Vis. km Vento km/h
Oggi h: 17:53 coperto Coperto 19 14 72 1018 10 SE 11.1
Oggi h: 16:53 coperto Coperto 19 15 77 1018 10 E/SE 9.3
Oggi h: 15:53 coperto_pioggia Pioggia 19 17 88 1018 10 E/SE 14.8
Oggi h: 15:35 coperto_pioggia Pioggia Foschia 18 17 93 1018 10 E/SE 14.8
Oggi h: 15:27 coperto_pioggia Pioggia 19 18 93 1018 13 E/SE 13
Oggi h: 15:01 coperto_pioggia Pioggia 19 18 93 1018 10 E 13
Oggi h: 14:53 coperto_pioggia Pioggia 19 18 93 1018 10 E 14.8
Oggi h: 14:13 coperto_pioggia Pioggia Foschia 19 18 93 1018 10 E/NE 11.1
Oggi h: 14:06 coperto_pioggia Pioggia Foschia 19 18 93 1017 10 E/NE 11.1
Oggi h: 13:53 coperto_pioggia Pioggia Foschia 18 18 100 1018 10 NE 9.3
Oggi h: 13:17 coperto_pioggia Pioggia Foschia 18 18 100 1018 8 NE 9.3
Oggi h: 12:53 coperto_pioggia Pioggia 19 18 93 1018 13 NE 9.3
Oggi h: 12:48 coperto Coperto 19 18 93 1018 14 E 7.4
Oggi h: 11:53 coperto Coperto 18 17 93 1018 10 N 5.5
Oggi h: 11:00 coperto Coperto 17 17 100 1018 10 N 0
Oggi h: 10:53 coperto Coperto 17 17 100 1017 10 N 5.5
Oggi h: 10:29 coperto_pioggia Pioggia 17 17 100 1017 10 N 5.5
Oggi h: 10:01 coperto_pioggia Pioggia 17 16 93 1018 14 E/NE 9.3
Oggi h: 09:53 coperto_pioggia Pioggia Foschia 17 17 100 1018 8 N/NE 7.4
Oggi h: 09:21 coperto_pioggia Pioggia Foschia 17 17 100 1018 5 NE 11.1
Oggi h: 09:07 coperto_pioggia Pioggia Foschia 17 17 100 1018 5 NE 11.1
Oggi h: 08:53 coperto_pioggia Pioggia Foschia 18 17 93 1018 6 N 7.4
Oggi h: 07:53 coperto Coperto 19 17 88 1018 10 N 5.5
Oggi h: 06:53 coperto Coperto 19 17 88 1017 10 O 7.4
Oggi h: 05:53 coperto Coperto 19 17 88 1017 10 O/SO 7.4
Oggi h: 04:53 coperto Coperto 19 17 88 1017 10 N 5.5
Oggi h: 03:53 coperto Coperto 19 16 82 1017 10 SO 9.3
Oggi h: 02:53 coperto Coperto 20 15 72 1018 10 SO 7.4
Oggi h: 01:53 coperto Coperto 20 13 64 1018 10 SO 13
Oggi h: 00:53 molto_nuvoloso Molto Nuvoloso 20 14 68 1018 10 SO 9.3
Ieri h: 23:53 coperto Coperto 20 16 77 1018 10 SO 9.3
Ieri h: 22:53 poco_nuvoloso Poco Nuvoloso 20 16 77 1018 10 S/SO 9.3
Ieri h: 21:53 sereno Sereno 20 16 77 1018 10 N 5.5
Ieri h: 20:53 sereno Sereno 19 16 82 1018 10 S/SE 9.3
Ieri h: 19:53 sereno Sereno 18 14 77 1018 10 E/SE 7.4
Ieri h: 18:53 sereno Sereno 19 14 72 1018 10 S/SE 9.3